Flag for Australia Weather past 2 weeks in Wodonga, Victoria, Australia

Now
49 °F

Overcast.


Feels Like: 44 °F
Forecast: 40 / 58 °F
Wind: 12 mph from Northwest

Location: Albury Aeroport Aws

Current Time: Sep 2, 2014 at 4:55:08 AM

Latest Report: Sep 2, 2014 at 3:00 AM


Visibility: N/A

Pressure: 29.86 "Hg

Humidity: 91%

Dew point: 46 °F

Location of WodongaLocation

Historic Weather in Wodonga — Graph

°F

Wodonga temperature yesterday

Maximum temperature yesterday: 68 °F (at 2:00 PM)
Minimum temperature yesterday: 41 °F (at 6:00 AM)
Average temperature yesterday: 53 °F

Past Weeks' High & Low Weather Summary

 TemperatureHumidityPressure
High68 °F (Sep 1, 2:00 PM)100% (Aug 21, 2:00 AM)30.49 "Hg (Aug 21, 2:00 AM)
Low36 °F (Aug 20, 6:00 AM)39% (Aug 26, 3:00 PM)29.79 "Hg (Sep 1, 3:00 PM)
Average51 °F78%30.25 "Hg
* Reported Aug 18 3:00 AM — Sep 2 3:00 AM, Wodonga, Weather by CustomWeather, © 2014

Note: Actual official high and low records may vary slightly from our data, if they occured in-between our weather recording intervals... More about our weather records

Advertising

Wodonga weather history for previous 24 hours

 ConditionsComfort  
Time TempWeatherWind HumidityBarometerVisibility
3:00 AM
Sep 2
49 °FOvercast.12 mph91%29.86 "HgN/A
2:00 AM48 °FCool.6 mph94%29.85 "HgN/A
12:00 AM49 °FOvercast.8 mph93%29.87 "HgN/A
11:00 PM
Sep 1
50 °FCool.8 mph94%29.87 "HgN/A
9:00 PM51 °FFog.7 mph94%29.88 "HgN/A
8:00 PM52 °FCool.6 mph89%29.87 "HgN/A
6:00 PM55 °FOvercast.7 mph75%29.84 "HgN/A
5:00 PM58 °FCool.15 mph61%29.82 "HgN/A
3:00 PM67 °FOvercast.10 mph40%29.79 "HgN/A
2:00 PM68 °FMild.10 mph49%29.81 "HgN/A
12:00 PM65 °FOvercast.12 mph48%29.87 "HgN/A
11:00 AM64 °FMild.9 mph53%29.91 "HgN/A
9:00 AM53 °FOvercast.6 mph83%29.96 "HgN/A
8:00 AM47 °FCool.1 mph98%29.98 "HgN/A
6:00 AM41 °FOvercast.No wind97%29.99 "HgN/A
5:00 AM42 °FQuite cool.No wind96%29.99 "HgN/A
Weather by CustomWeather, © 2014

See weather overviewHow to use our weather pages